,,,PA_Meas_PMT16A,,PR_Meas_QMR101_102,,RH_Meas_QMH101,,SR_Meas_QMS101,,TA_Meas_QMH101,,GenWind,,GenWind,
date,time,status,PA,status,PR,status,RH,status,SR,status,TA,status,DirAvg,status,SpdAvg,
2014-06-08, 00:00:04,VALID,1005.95,VALID,0,INVALID,110.589,VALID,0,VALID,25.4482,VALID,230,VALID,0,
2014-06-08, 00:01:04,VALID,1005.96,VALID,0,INVALID,110.619,VALID,0,VALID,25.4267,VALID,230,VALID,0,
2014-06-08, 00:02:04,VALID,1005.95,VALID,0,INVALID,110.619,VALID,0,VALID,25.4482,VALID,230,VALID,0,
2014-06-08, 00:03:04,VALID,1005.95,VALID,0,INVALID,110.612,VALID,0,VALID,25.4482,VALID,230,VALID,0,
2014-06-08, 00:04:04,VALID,1005.95,VALID,0,INVALID,110.657,VALID,0,VALID,25.4482,VALID,230,VALID,0,
2014-06-08, 00:05:04,VALID,1005.97,VALID,0,INVALID,110.634,VALID,0.112112,VALID,25.4287,VALID,230,VALID,0,
2014-06-08, 00:06:04,VALID,1005.91,VALID,0,INVALID,110.673,VALID,0.112112,VALID,25.4072,VALID,230,VALID,0,
2014-06-08, 00:07:04,VALID,1005.92,VALID,0,INVALID,110.642,VALID,0,VALID,25.4092,VALID,230,VALID,0,
2014-06-08, 00:08:04,VALID,1005.88,VALID,0,INVALID,110.673,VALID,0.112112,VALID,25.3877,VALID,230,VALID,0,
2014-06-08, 00:09:04,VALID,1005.9,VALID,0,INVALID,110.68,VALID,0.112112,VALID,25.3897,VALID,230,VALID,0,
2014-06-08, 00:10:04,VALID,1005.91,VALID,0,INVALID,110.718,VALID,0,VALID,25.3897,VALID,230,VALID,0,
2014-06-08, 00:11:04,VALID,1005.92,VALID,0,INVALID,110.68,VALID,0,VALID,25.3702,VALID,230,VALID,0,
2014-06-08, 00:12:04,VALID,1005.92,VALID,0,INVALID,110.688,VALID,0.112112,VALID,25.3488,VALID,230,VALID,0,
2014-06-08, 00:13:04,VALID,1005.93,VALID,0,INVALID,110.734,VALID,0.112112,VALID,25.3702,VALID,230,VALID,0,
2014-06-08, 00:14:04,VALID,1005.93,VALID,0,INVALID,110.718,VALID,0,VALID,25.3312,VALID,230,VALID,0,
2014-06-08, 00:15:04,VALID,1005.93,VALID,0,INVALID,110.718,VALID,0.112112,VALID,25.3312,VALID,230,VALID,0,
2014-06-08, 00:16:04,VALID,1005.95,VALID,0,INVALID,110.756,VALID,0.112112,VALID,25.2922,VALID,230,VALID,0,
2014-06-08, 00:17:04,VALID,1005.93,VALID,0,INVALID,110.726,VALID,0.112112,VALID,25.2727,VALID,230,VALID,0,
2014-06-08, 00:18:04,VALID,1005.94,VALID,0,INVALID,110.726,VALID,0,VALID,25.2532,VALID,230,VALID,0,
2014-06-08, 00:19:04,VALID,1005.92,VALID,0,INVALID,110.703,VALID,0,VALID,25.2532,VALID,230,VALID,0,
2014-06-08, 00:20:04,VALID,1005.92,VALID,0,INVALID,110.718,VALID,0,VALID,25.2318,VALID,230,VALID,0,
2014-06-08, 00:21:04,VALID,1005.87,VALID,0,INVALID,110.703,VALID,0,VALID,25.2337,VALID,230,VALID,0,
2014-06-08, 00:22:04,VALID,1005.88,VALID,0,INVALID,110.703,VALID,0.112112,VALID,25.2727,VALID,230,VALID,0,
2014-06-08, 00:23:04,VALID,1005.85,VALID,0,INVALID,110.726,VALID,0,VALID,25.2532,VALID,230,VALID,0,
2014-06-08, 00:24:04,VALID,1005.84,VALID,0,INVALID,110.703,VALID,0.112112,VALID,25.2318,VALID,230,VALID,0,
2014-06-08, 00:25:04,VALID,1005.81,VALID,0,INVALID,110.718,VALID,0,VALID,25.2318,VALID,230,VALID,0,
2014-06-08, 00:26:04,VALID,1005.81,VALID,0,INVALID,110.703,VALID,0,VALID,25.2123,VALID,230,VALID,0,
2014-06-08, 00:27:04,VALID,1005.81,VALID,0,INVALID,110.718,VALID,0,VALID,25.2532,VALID,230,VALID,0,
2014-06-08, 00:28:04,VALID,1005.83,VALID,0,INVALID,110.726,VALID,0.112112,VALID,25.2318,VALID,230,VALID,0,
2014-06-08, 00:29:04,VALID,1005.82,VALID,0,INVALID,110.703,VALID,0.112112,VALID,25.2727,VALID,230,VALID,0,
2014-06-08, 00:30:04,VALID,1005.81,VALID,0,INVALID,110.703,VALID,0.112112,VALID,25.2318,VALID,230,VALID,0,
2014-06-08, 00:31:04,VALID,1005.82,VALID,0,INVALID,110.741,VALID,0,VALID,25.2727,VALID,230,VALID,0,
2014-06-08, 00:32:04,VALID,1005.81,VALID,0,INVALID,110.718,VALID,0,VALID,25.2727,VALID,230,VALID,0,
2014-06-08, 00:33:04,VALID,1005.81,VALID,0,INVALID,110.718,VALID,0,VALID,25.2727,VALID,230,VALID,0,
2014-06-08, 00:34:04,VALID,1005.8,VALID,0,INVALID,110.695,VALID,0,VALID,25.2922,VALID,230,VALID,0,
2014-06-08, 00:35:04,VALID,1005.76,VALID,0,INVALID,110.711,VALID,0.112112,VALID,25.2708,VALID,230,VALID,0,
2014-06-08, 00:36:04,VALID,1005.77,VALID,0,INVALID,110.688,VALID,0.112112,VALID,25.2727,VALID,230,VALID,0,
2014-06-08, 00:37:04,VALID,1005.76,VALID,0,INVALID,110.711,VALID,0,VALID,25.2513,VALID,230,VALID,0,
2014-06-08, 00:38:04,VALID,1005.73,VALID,0,INVALID,110.734,VALID,0,VALID,25.2708,VALID,230,VALID,0,
2014-06-08, 00:39:04,VALID,1005.75,VALID,0,INVALID,110.726,VALID,0.112112,VALID,25.2513,VALID,230,VALID,0,
2014-06-08, 00:40:04,VALID,1005.72,VALID,0,INVALID,110.734,VALID,0,VALID,25.2746,VALID,230,VALID,0,
2014-06-08, 00:41:04,VALID,1005.73,VALID,0,INVALID,110.756,VALID,0,VALID,25.2551,VALID,230,VALID,0,
2014-06-08, 00:42:04,VALID,1005.74,VALID,0,INVALID,110.764,VALID,0,VALID,25.2551,VALID,230,VALID,0,
2014-06-08, 00:43:04,VALID,1005.74,VALID,0,INVALID,110.787,VALID,0,VALID,25.2142,VALID,230,VALID,0,
2014-06-08, 00:44:04,VALID,1005.75,VALID,0,INVALID,110.779,VALID,0,VALID,25.2142,VALID,230,VALID,0,
2014-06-08, 00:45:04,VALID,1005.72,VALID,0,INVALID,110.764,VALID,0,VALID,25.2161,VALID,230,VALID,0,
2014-06-08, 00:46:04,VALID,1005.74,VALID,0,INVALID,110.802,VALID,0,VALID,25.1947,VALID,230,VALID,0,
2014-06-08, 00:47:04,VALID,1005.71,VALID,0,INVALID,110.764,VALID,0,VALID,25.2161,VALID,230,VALID,0,
2014-06-08, 00:48:04,VALID,1005.74,VALID,0,INVALID,110.764,VALID,0,VALID,25.1947,VALID,230,VALID,0,
2014-06-08, 00:49:04,VALID,1005.75,VALID,0,INVALID,110.756,VALID,0,VALID,25.1966,VALID,230,VALID,0,
2014-06-08, 00:50:04,VALID,1005.76,VALID,0,INVALID,110.772,VALID,0,VALID,25.1771,VALID,230,VALID,0,
2014-06-08, 00:51:04,VALID,1005.73,VALID,0,INVALID,110.764,VALID,0,VALID,25.1576,VALID,230,VALID,0,
2014-06-08, 00:52:04,VALID,1005.73,VALID,0,INVALID,110.772,VALID,0,VALID,25.1362,VALID,230,VALID,0,
2014-06-08, 00:53:04,VALID,1005.72,VALID,0,INVALID,110.772,VALID,0,VALID,25.1381,VALID,230,VALID,0,
2014-06-08, 00:54:04,VALID,1005.73,VALID,0,INVALID,110.772,VALID,0,VALID,25.1167,VALID,230,VALID,0,
2014-06-08, 00:55:04,VALID,1005.73,VALID,0,INVALID,110.764,VALID,0,VALID,25.1167,VALID,230,VALID,0,
2014-06-08, 00:56:04,VALID,1005.74,VALID,0,INVALID,110.718,VALID,0,VALID,25.1148,VALID,230,VALID,0,
2014-06-08, 00:57:04,VALID,1005.74,VALID,0,INVALID,110.695,VALID,0.112112,VALID,25.1148,VALID,230,VALID,0,
2014-06-08, 00:58:04,VALID,1005.73,VALID,0,INVALID,110.718,VALID,0.112112,VALID,25.1343,VALID,230,VALID,0,
2014-06-08, 00:59:04,VALID,1005.78,VALID,0,INVALID,110.726,VALID,0.112112,VALID,25.1557,VALID,227,VALID,0,
2014-06-08, 01:00:04,VALID,1005.74,VALID,0,INVALID,110.711,VALID,0.112112,VALID,25.1752,VALID,226,VALID,0,
2014-06-08, 01:01:04,VALID,1005.74,VALID,0,INVALID,110.657,VALID,0,VALID,25.1752,VALID,226,VALID,0,
2014-06-08, 01:02:04,VALID,1005.72,VALID,0,INVALID,110.673,VALID,0,VALID,25.1733,VALID,226,VALID,0,
2014-06-08, 01:03:04,VALID,1005.71,VALID,0,INVALID,110.665,VALID,0.112112,VALID,25.1947,VALID,226,VALID,0,
2014-06-08, 01:04:04,VALID,1005.67,VALID,0,INVALID,110.734,VALID,0.112112,VALID,25.1947,VALID,226,VALID,0,
2014-06-08, 01:05:04,VALID,1005.67,VALID,0,INVALID,110.772,VALID,0.112112,VALID,25.1538,VALID,226,VALID,0,
2014-06-08, 01:06:04,VALID,1005.61,VALID,0,INVALID,110.741,VALID,0,VALID,25.1538,VALID,226,VALID,0,
2014-06-08, 01:07:04,VALID,1005.6,VALID,0,INVALID,110.772,VALID,0,VALID,25.1752,VALID,226,VALID,0,
2014-06-08, 01:08:04,VALID,1005.54,VALID,0,INVALID,110.756,VALID,0.112112,VALID,25.1752,VALID,226,VALID,0,
2014-06-08, 01:09:04,VALID,1005.53,VALID,0,INVALID,110.749,VALID,0,VALID,25.1752,VALID,226,VALID,0,
2014-06-08, 01:10:04,VALID,1005.51,VALID,0,INVALID,110.756,VALID,0,VALID,25.1771,VALID,226,VALID,0,
2014-06-08, 01:11:04,VALID,1005.5,VALID,0,INVALID,110.764,VALID,0,VALID,25.1362,VALID,226,VALID,0,
2014-06-08, 01:12:04,VALID,1005.48,VALID,0,INVALID,110.779,VALID,0,VALID,25.1381,VALID,226,VALID,0,
2014-06-08, 01:13:04,VALID,1005.47,VALID,0,INVALID,110.817,VALID,0,VALID,25.0973,VALID,226,VALID,0,
2014-06-08, 01:14:04,VALID,1005.45,VALID,0,INVALID,110.787,VALID,0,VALID,25.0778,VALID,226,VALID,0,
2014-06-08, 01:15:04,VALID,1005.45,VALID,0,INVALID,110.802,VALID,0,VALID,25.0992,VALID,226,VALID,0,
2014-06-08, 01:16:04,VALID,1005.4,VALID,0,INVALID,110.81,VALID,0,VALID,25.0583,VALID,226,VALID,0,
2014-06-08, 01:17:04,VALID,1005.41,VALID,0,INVALID,110.825,VALID,0,VALID,25.0602,VALID,226,VALID,0,
2014-06-08, 01:18:04,VALID,1005.42,VALID,0,INVALID,110.795,VALID,0,VALID,25.0602,VALID,226,VALID,0,
2014-06-08, 01:19:04,VALID,1005.4,VALID,0,INVALID,110.802,VALID,0,VALID,25.0193,VALID,226,VALID,0,
2014-06-08, 01:20:04,VALID,1005.4,VALID,0,INVALID,110.802,VALID,0,VALID,25.0212,VALID,226,VALID,0,
2014-06-08, 01:21:04,VALID,1005.43,VALID,0,INVALID,110.817,VALID,0,VALID,24.9803,VALID,226,VALID,0,
2014-06-08, 01:22:04,VALID,1005.42,VALID,0,INVALID,110.833,VALID,0,VALID,24.9822,VALID,226,VALID,0,
2014-06-08, 01:23:04,VALID,1005.44,VALID,0,INVALID,110.848,VALID,0,VALID,24.9608,VALID,226,VALID,0,
2014-06-08, 01:24:04,VALID,1005.46,VALID,0,INVALID,110.84,VALID,0,VALID,24.9627,VALID,226,VALID,0,
2014-06-08, 01:25:04,VALID,1005.45,VALID,0,INVALID,110.81,VALID,0,VALID,24.9413,VALID,226,VALID,0,
2014-06-08, 01:26:04,VALID,1005.47,VALID,0,INVALID,110.802,VALID,0,VALID,24.9218,VALID,226,VALID,0,
2014-06-08, 01:27:04,VALID,1005.46,VALID,0,INVALID,110.817,VALID,0,VALID,24.9218,VALID,226,VALID,0,
2014-06-08, 01:28:04,VALID,1005.46,VALID,0,INVALID,110.81,VALID,0,VALID,24.9218,VALID,226,VALID,0,
2014-06-08, 01:29:04,VALID,1005.49,VALID,0,INVALID,110.81,VALID,0.112112,VALID,24.8615,VALID,226,VALID,0,
2014-06-08, 01:30:04,VALID,1005.46,VALID,0,INVALID,110.795,VALID,0,VALID,24.8828,VALID,226,VALID,0,
2014-06-08, 01:31:04,VALID,1005.43,VALID,0,INVALID,110.802,VALID,0.112112,VALID,24.842,VALID,226,VALID,0,
2014-06-08, 01:32:04,VALID,1005.46,VALID,0,INVALID,110.756,VALID,0,VALID,24.8615,VALID,226,VALID,0,
2014-06-08, 01:33:04,VALID,1005.51,VALID,0,INVALID,110.734,VALID,0.112112,VALID,24.9023,VALID,226,VALID,0,
2014-06-08, 01:34:04,VALID,1005.51,VALID,0,INVALID,110.726,VALID,0,VALID,24.8828,VALID,226,VALID,0,
2014-06-08, 01:35:04,VALID,1005.53,VALID,0,INVALID,110.741,VALID,0.112112,VALID,24.9023,VALID,226,VALID,0,
2014-06-08, 01:36:04,VALID,1005.57,VALID,0,INVALID,110.718,VALID,0.112112,VALID,24.842,VALID,226,VALID,0,
2014-06-08, 01:37:04,VALID,1005.59,VALID,0,INVALID,110.734,VALID,0.112112,VALID,24.842,VALID,226,VALID,0,
2014-06-08, 01:38:04,VALID,1005.62,VALID,0,INVALID,110.726,VALID,0,VALID,24.8225,VALID,226,VALID,0,
2014-06-08, 01:39:04,VALID,1005.63,VALID,0,INVALID,110.673,VALID,0.112112,VALID,24.842,VALID,226,VALID,0,
2014-06-08, 01:40:04,VALID,1005.65,VALID,0,INVALID,110.703,VALID,0,VALID,24.8457,VALID,226,VALID,0,
2014-06-08, 01:41:04,VALID,1005.65,VALID,0,INVALID,110.711,VALID,0,VALID,24.8049,VALID,226,VALID,0,
2014-06-08, 01:42:04,VALID,1005.63,VALID,0,INVALID,110.741,VALID,0,VALID,24.8067,VALID,226,VALID,0,
2014-06-08, 01:43:04,VALID,1005.68,VALID,0,INVALID,110.718,VALID,0,VALID,24.7854,VALID,226,VALID,0,
2014-06-08, 01:44:04,VALID,1005.66,VALID,0,INVALID,110.718,VALID,0,VALID,24.7854,VALID,226,VALID,0,
2014-06-08, 01:45:04,VALID,1005.68,VALID,0,INVALID,110.65,VALID,0,VALID,24.7854,VALID,226,VALID,0,
2014-06-08, 01:46:04,VALID,1005.68,VALID,0,INVALID,110.65,VALID,0,VALID,24.8067,VALID,226,VALID,0,
2014-06-08, 01:47:04,VALID,1005.68,VALID,0,INVALID,110.657,VALID,0,VALID,24.8049,VALID,226,VALID,0,
2014-06-08, 01:48:04,VALID,1005.69,VALID,0,INVALID,110.612,VALID,0,VALID,24.8049,VALID,226,VALID,0,
2014-06-08, 01:49:04,VALID,1005.7,VALID,0,INVALID,110.581,VALID,0,VALID,24.8049,VALID,226,VALID,0,
2014-06-08, 01:50:04,VALID,1005.7,VALID,0,INVALID,110.543,VALID,0,VALID,24.8457,VALID,226,VALID,0,
2014-06-08, 01:51:04,VALID,1005.71,VALID,0,INVALID,110.551,VALID,0,VALID,24.8652,VALID,226,VALID,0,
2014-06-08, 01:52:04,VALID,1005.71,VALID,0,INVALID,110.505,VALID,0,VALID,24.8633,VALID,226,VALID,0,
2014-06-08, 01:53:04,VALID,1005.67,VALID,0,INVALID,110.429,VALID,0,VALID,24.8828,VALID,226,VALID,0,
2014-06-08, 01:54:04,VALID,1005.68,VALID,0,INVALID,110.406,VALID,0,VALID,24.9237,VALID,226,VALID,0,
2014-06-08, 01:55:04,VALID,1005.64,VALID,0,INVALID,110.398,VALID,0,VALID,24.9413,VALID,226,VALID,0,
2014-06-08, 01:56:04,VALID,1005.64,VALID,0,INVALID,110.337,VALID,0,VALID,24.9394,VALID,226,VALID,0,
2014-06-08, 01:57:04,VALID,1005.61,VALID,0,INVALID,110.314,VALID,0.112112,VALID,24.9589,VALID,226,VALID,0,
2014-06-08, 01:58:04,VALID,1005.62,VALID,0,INVALID,110.337,VALID,0,VALID,24.9803,VALID,226,VALID,0,
2014-06-08, 01:59:04,VALID,1005.63,VALID,0,INVALID,110.329,VALID,0,VALID,24.9803,VALID,226,VALID,0,
2014-06-08, 02:00:04,VALID,1005.62,VALID,0,INVALID,110.307,VALID,0.112112,VALID,24.9998,VALID,226,VALID,0,
2014-06-08, 02:01:04,VALID,1005.62,VALID,0,INVALID,110.291,VALID,0.112112,VALID,24.9998,VALID,226,VALID,0,
2014-06-08, 02:02:04,VALID,1005.61,VALID,0,INVALID,110.314,VALID,0,VALID,24.9803,VALID,226,VALID,0,
2014-06-08, 02:03:04,VALID,1005.64,VALID,0,INVALID,110.368,VALID,0.112112,VALID,24.9394,VALID,226,VALID,0,
2014-06-08, 02:04:04,VALID,1005.61,VALID,0,INVALID,110.406,VALID,0,VALID,24.9413,VALID,226,VALID,0,
2014-06-08, 02:05:04,VALID,1005.6,VALID,0,INVALID,110.451,VALID,0,VALID,24.9023,VALID,226,VALID,0,
2014-06-08, 02:06:04,VALID,1005.6,VALID,0,INVALID,110.467,VALID,0,VALID,24.8615,VALID,226,VALID,0,
2014-06-08, 02:07:04,VALID,1005.61,VALID,0,INVALID,110.512,VALID,0,VALID,24.8438,VALID,226,VALID,0,
2014-06-08, 02:08:04,VALID,1005.61,VALID,0,INVALID,110.535,VALID,0,VALID,24.8438,VALID,226,VALID,0,
2014-06-08, 02:09:04,VALID,1005.63,VALID,0,INVALID,110.543,VALID,0,VALID,24.8049,VALID,226,VALID,0,
2014-06-08, 02:10:04,VALID,1005.64,VALID,0,INVALID,110.528,VALID,0,VALID,24.8244,VALID,226,VALID,0,
2014-06-08, 02:11:04,VALID,1005.65,VALID,0,INVALID,110.505,VALID,0,VALID,24.8438,VALID,226,VALID,0,
2014-06-08, 02:12:04,VALID,1005.66,VALID,0,INVALID,110.482,VALID,0,VALID,24.8244,VALID,226,VALID,0,
2014-06-08, 02:13:04,VALID,1005.65,VALID,0,INVALID,110.474,VALID,0,VALID,24.8438,VALID,226,VALID,0,
2014-06-08, 02:14:04,VALID,1005.66,VALID,0,INVALID,110.512,VALID,0,VALID,24.7835,VALID,226,VALID,0,
2014-06-08, 02:15:04,VALID,1005.68,VALID,0,INVALID,110.535,VALID,0,VALID,24.7854,VALID,226,VALID,0,
2014-06-08, 02:16:04,VALID,1005.67,VALID,0,INVALID,110.497,VALID,0,VALID,24.7854,VALID,226,VALID,0,
2014-06-08, 02:17:04,VALID,1005.66,VALID,0,INVALID,110.52,VALID,0,VALID,24.7854,VALID,226,VALID,0,
2014-06-08, 02:18:04,VALID,1005.68,VALID,0,INVALID,110.528,VALID,0,VALID,24.7659,VALID,226,VALID,0,
2014-06-08, 02:19:04,VALID,1005.65,VALID,0,INVALID,110.451,VALID,0,VALID,24.764,VALID,226,VALID,0,
2014-06-08, 02:20:04,VALID,1005.67,VALID,0,INVALID,110.413,VALID,0,VALID,24.8049,VALID,226,VALID,0,
2014-06-08, 02:21:04,VALID,1005.67,VALID,0,INVALID,110.398,VALID,0,VALID,24.8244,VALID,226,VALID,0,
2014-06-08, 02:22:04,VALID,1005.7,VALID,0,INVALID,110.36,VALID,0.112112,VALID,24.8438,VALID,226,VALID,0,
2014-06-08, 02:23:04,VALID,1005.68,VALID,0,INVALID,110.322,VALID,0.112112,VALID,24.8828,VALID,226,VALID,0,
2014-06-08, 02:24:04,VALID,1005.69,VALID,0,INVALID,110.352,VALID,0.112112,VALID,24.8809,VALID,226,VALID,0,
2014-06-08, 02:25:04,VALID,1005.71,VALID,0,INVALID,110.253,VALID,0,VALID,24.9042,VALID,226,VALID,0,
2014-06-08, 02:26:04,VALID,1005.69,VALID,0,INVALID,110.23,VALID,0,VALID,24.9218,VALID,226,VALID,0,
2014-06-08, 02:27:04,VALID,1005.69,VALID,0,INVALID,110.215,VALID,0,VALID,24.9218,VALID,226,VALID,0,
2014-06-08, 02:28:04,VALID,1005.67,VALID,0,INVALID,110.177,VALID,0,VALID,24.9413,VALID,226,VALID,0,
2014-06-08, 02:29:04,VALID,1005.66,VALID,0,INVALID,110.139,VALID,0,VALID,24.9822,VALID,226,VALID,0,
2014-06-08, 02:30:04,VALID,1005.64,VALID,0,INVALID,110.162,VALID,0,VALID,25.0017,VALID,226,VALID,0,
2014-06-08, 02:31:04,VALID,1005.64,VALID,0,INVALID,110.162,VALID,0,VALID,24.9803,VALID,226,VALID,0,
2014-06-08, 02:32:04,VALID,1005.65,VALID,0,INVALID,110.124,VALID,0,VALID,24.9998,VALID,226,VALID,0,
2014-06-08, 02:33:04,VALID,1005.62,VALID,0,INVALID,110.139,VALID,0,VALID,25.0193,VALID,226,VALID,0,
2014-06-08, 02:34:04,VALID,1005.65,VALID,0,INVALID,110.124,VALID,0,VALID,25.0407,VALID,226,VALID,0,
2014-06-08, 02:35:04,VALID,1005.63,VALID,0,INVALID,110.131,VALID,0,VALID,25.0193,VALID,227,VALID,0,
2014-06-08, 02:36:04,VALID,1005.65,VALID,0,INVALID,110.131,VALID,0,VALID,25.0388,VALID,227,VALID,0,
2014-06-08, 02:37:04,VALID,1005.63,VALID,0,INVALID,110.162,VALID,0,VALID,25.0193,VALID,227,VALID,0,
2014-06-08, 02:38:04,VALID,1005.6,VALID,0,INVALID,110.192,VALID,0,VALID,25.0388,VALID,227,VALID,0,
2014-06-08, 02:39:04,VALID,1005.61,VALID,0,INVALID,110.185,VALID,0,VALID,25.0388,VALID,227,VALID,0,
2014-06-08, 02:40:04,VALID,1005.59,VALID,0,INVALID,110.185,VALID,0,VALID,25.0388,VALID,227,VALID,0,
2014-06-08, 02:41:04,VALID,1005.58,VALID,0,INVALID,110.185,VALID,0,VALID,25.0388,VALID,227,VALID,0,
2014-06-08, 02:42:04,VALID,1005.58,VALID,0,INVALID,110.177,VALID,0,VALID,25.0583,VALID,227,VALID,0,
2014-06-08, 02:43:04,VALID,1005.59,VALID,0,INVALID,110.169,VALID,0,VALID,25.0797,VALID,227,VALID,0,
2014-06-08, 02:44:04,VALID,1005.56,VALID,0,INVALID,110.223,VALID,0,VALID,25.0602,VALID,227,VALID,0,
2014-06-08, 02:45:04,VALID,1005.55,VALID,0,INVALID,110.223,VALID,0,VALID,25.0583,VALID,227,VALID,0,
2014-06-08, 02:46:04,VALID,1005.55,VALID,0,INVALID,110.238,VALID,0,VALID,25.0602,VALID,227,VALID,0,
2014-06-08, 02:47:04,VALID,1005.57,VALID,0,INVALID,110.246,VALID,0,VALID,25.0388,VALID,227,VALID,0,
2014-06-08, 02:48:04,VALID,1005.56,VALID,0,INVALID,110.253,VALID,0,VALID,25.0388,VALID,249,VALID,0,
2014-06-08, 02:49:04,VALID,1005.55,VALID,0,INVALID,110.261,VALID,0,VALID,25.0583,VALID,249,VALID,0,
2014-06-08, 02:50:04,VALID,1005.58,VALID,0,INVALID,110.261,VALID,0,VALID,25.0388,VALID,249,VALID,0,
2014-06-08, 02:51:04,VALID,1005.56,VALID,0,INVALID,110.291,VALID,0,VALID,25.0583,VALID,249,VALID,0,
2014-06-08, 02:52:04,VALID,1005.59,VALID,0,INVALID,110.284,VALID,0,VALID,25.0602,VALID,249,VALID,0,
2014-06-08, 02:53:04,VALID,1005.56,VALID,0,INVALID,110.337,VALID,0,VALID,25.0602,VALID,249,VALID,0,
2014-06-08, 02:54:04,VALID,1005.56,VALID,0,INVALID,110.345,VALID,0,VALID,25.0193,VALID,249,VALID,0,
2014-06-08, 02:55:05,VALID,1005.57,VALID,0,INVALID,110.368,VALID,0,VALID,25.0174,VALID,249,VALID,0,
2014-06-08, 02:56:05,VALID,1005.55,VALID,0,INVALID,110.413,VALID,0.112112,VALID,25.0193,VALID,249,VALID,0,
2014-06-08, 02:57:05,VALID,1005.55,VALID,0,INVALID,110.398,VALID,0,VALID,24.9979,VALID,249,VALID,0,
2014-06-08, 02:58:05,VALID,1005.55,VALID,0,INVALID,110.413,VALID,0.112112,VALID,25.0193,VALID,249,VALID,0,
2014-06-08, 02:59:05,VALID,1005.51,VALID,0,INVALID,110.406,VALID,0.112112,VALID,25.0193,VALID,249,VALID,0,
2014-06-08, 03:00:05,VALID,1005.52,VALID,0,INVALID,110.413,VALID,0,VALID,25.0193,VALID,249,VALID,0,
2014-06-08, 03:01:05,VALID,1005.52,VALID,0,INVALID,110.406,VALID,0.112112,VALID,24.9979,VALID,249,VALID,0,
2014-06-08, 03:02:05,VALID,1005.51,VALID,0,INVALID,110.39,VALID,0.112112,VALID,24.9979,VALID,249,VALID,0,
2014-06-08, 03:03:05,VALID,1005.48,VALID,0,INVALID,110.413,VALID,0,VALID,25.0193,VALID,249,VALID,0,
2014-06-08, 03:04:05,VALID,1005.52,VALID,0,INVALID,110.421,VALID,0,VALID,24.9979,VALID,249,VALID,0,
2014-06-08, 03:05:05,VALID,1005.5,VALID,0,INVALID,110.421,VALID,0.112112,VALID,25.0193,VALID,249,VALID,0,
2014-06-08, 03:06:05,VALID,1005.51,VALID,0,INVALID,110.398,VALID,0.112112,VALID,25.0193,VALID,249,VALID,0,
2014-06-08, 03:07:05,VALID,1005.53,VALID,0,INVALID,110.436,VALID,0,VALID,24.9979,VALID,249,VALID,0,
2014-06-08, 03:08:05,VALID,1005.51,VALID,0,INVALID,110.474,VALID,0.112112,VALID,24.9998,VALID,249,VALID,0,
2014-06-08, 03:09:05,VALID,1005.5,VALID,0,INVALID,110.482,VALID,0.112112,VALID,24.9784,VALID,249,VALID,0,
2014-06-08, 03:10:05,VALID,1005.5,VALID,0,INVALID,110.512,VALID,0,VALID,24.9998,VALID,249,VALID,0,
2014-06-08, 03:11:05,VALID,1005.48,VALID,0,INVALID,110.528,VALID,0.112112,VALID,24.9803,VALID,249,VALID,0,
2014-06-08, 03:12:05,VALID,1005.46,VALID,0,INVALID,110.482,VALID,0,VALID,24.9589,VALID,249,VALID,0,
2014-06-08, 03:13:05,VALID,1005.47,VALID,0,INVALID,110.497,VALID,0.112112,VALID,24.9589,VALID,249,VALID,0,
2014-06-08, 03:14:05,VALID,1005.48,VALID,0,INVALID,110.49,VALID,0.112112,VALID,24.9803,VALID,249,VALID,0,
2014-06-08, 03:15:05,VALID,1005.51,VALID,0,INVALID,110.505,VALID,0.112112,VALID,24.9803,VALID,249,VALID,0,
2014-06-08, 03:16:05,VALID,1005.51,VALID,0,INVALID,110.497,VALID,0,VALID,24.9998,VALID,249,VALID,0,
2014-06-08, 03:17:05,VALID,1005.57,VALID,0,INVALID,110.505,VALID,0.112112,VALID,24.9803,VALID,249,VALID,0,
2014-06-08, 03:18:05,VALID,1005.55,VALID,0,INVALID,110.497,VALID,0.112112,VALID,24.9589,VALID,249,VALID,0,
2014-06-08, 03:19:05,VALID,1005.56,VALID,0,INVALID,110.528,VALID,0.112112,VALID,24.9608,VALID,249,VALID,0,
2014-06-08, 03:20:05,VALID,1005.58,VALID,0,INVALID,110.551,VALID,0,VALID,24.9394,VALID,249,VALID,0,
2014-06-08, 03:21:05,VALID,1005.58,VALID,0,INVALID,110.543,VALID,0,VALID,24.9218,VALID,249,VALID,0,
2014-06-08, 03:22:05,VALID,1005.55,VALID,0,INVALID,110.558,VALID,0,VALID,24.9199,VALID,249,VALID,0,
2014-06-08, 03:23:05,VALID,1005.57,VALID,0,INVALID,110.52,VALID,0.112112,VALID,24.9413,VALID,249,VALID,0,
2014-06-08, 03:24:05,VALID,1005.55,VALID,0,INVALID,110.543,VALID,0,VALID,24.9218,VALID,249,VALID,0,
2014-06-08, 03:25:05,VALID,1005.55,VALID,0,INVALID,110.551,VALID,0,VALID,24.9218,VALID,249,VALID,0,
2014-06-08, 03:26:05,VALID,1005.54,VALID,0,INVALID,110.505,VALID,0,VALID,24.9218,VALID,249,VALID,0,
2014-06-08, 03:27:05,VALID,1005.54,VALID,0,INVALID,110.52,VALID,0.112112,VALID,24.9004,VALID,249,VALID,0,
2014-06-08, 03:28:05,VALID,1005.55,VALID,0,INVALID,110.535,VALID,0.112112,VALID,24.8809,VALID,249,VALID,0,
2014-06-08, 03:29:05,VALID,1005.54,VALID,0,INVALID,110.551,VALID,0.112112,VALID,24.8401,VALID,249,VALID,0,
2014-06-08, 03:30:05,VALID,1005.52,VALID,0,INVALID,110.558,VALID,0.112112,VALID,24.842,VALID,249,VALID,0,
2014-06-08, 03:31:05,VALID,1005.5,VALID,0,INVALID,110.558,VALID,0.112112,VALID,24.8633,VALID,249,VALID,0,
2014-06-08, 03:32:05,VALID,1005.52,VALID,0,INVALID,110.581,VALID,0,VALID,24.8633,VALID,249,VALID,0,
2014-06-08, 03:33:05,VALID,1005.54,VALID,0,INVALID,110.558,VALID,0.112112,VALID,24.8225,VALID,249,VALID,0,
2014-06-08, 03:34:05,VALID,1005.53,VALID,0,INVALID,110.581,VALID,0,VALID,24.8244,VALID,249,VALID,0,
2014-06-08, 03:35:05,VALID,1005.55,VALID,0,INVALID,110.589,VALID,0,VALID,24.8244,VALID,249,VALID,0,
2014-06-08, 03:36:05,VALID,1005.52,VALID,0,INVALID,110.589,VALID,0.112112,VALID,24.8049,VALID,249,VALID,0,
2014-06-08, 03:37:05,VALID,1005.54,VALID,0,INVALID,110.589,VALID,0.112112,VALID,24.7854,VALID,249,VALID,0,
2014-06-08, 03:38:05,VALID,1005.57,VALID,0,INVALID,110.619,VALID,0.112112,VALID,24.764,VALID,249,VALID,0,
2014-06-08, 03:39:05,VALID,1005.59,VALID,0,INVALID,110.589,VALID,0.112112,VALID,24.7659,VALID,249,VALID,0,
2014-06-08, 03:40:05,VALID,1005.56,VALID,0,INVALID,110.612,VALID,0,VALID,24.725,VALID,249,VALID,0,
2014-06-08, 03:41:05,VALID,1005.59,VALID,0,INVALID,110.589,VALID,0.112112,VALID,24.7464,VALID,249,VALID,0,
2014-06-08, 03:42:05,VALID,1005.59,VALID,0,INVALID,110.627,VALID,0.112112,VALID,24.7269,VALID,249,VALID,0,
2014-06-08, 03:43:05,VALID,1005.61,VALID,0,INVALID,110.612,VALID,0.112112,VALID,24.7074,VALID,249,VALID,0,
2014-06-08, 03:44:05,VALID,1005.58,VALID,0,INVALID,110.596,VALID,0.112112,VALID,24.7269,VALID,249,VALID,0,
2014-06-08, 03:45:05,VALID,1005.57,VALID,0,INVALID,110.581,VALID,0,VALID,24.7055,VALID,249,VALID,0,
2014-06-08, 03:46:05,VALID,1005.57,VALID,0,INVALID,110.551,VALID,0.112112,VALID,24.7464,VALID,249,VALID,0,
2014-06-08, 03:47:05,VALID,1005.57,VALID,0,INVALID,110.528,VALID,0.112112,VALID,24.7464,VALID,249,VALID,0,
2014-06-08, 03:48:05,VALID,1005.56,VALID,0,INVALID,110.535,VALID,0.112112,VALID,24.7659,VALID,249,VALID,0,
2014-06-08, 03:49:05,VALID,1005.51,VALID,0,INVALID,110.52,VALID,0,VALID,24.7464,VALID,249,VALID,0,